Time,TemperatureF,DewpointF,PressureIn,WindDirection,WindDirectionDegrees,WindSpeedMPH,WindSpeedGustMPH,Humidity,HourlyPrecipIn,Conditions,Clouds,dailyrainin,SoftwareType,DateUTC
2013-06-03 00:00:00,64.1,63.5,29.90,West,270,0.0,1.0,98,0.00,,OVC,0.00,VWS V14.01,2013-06-03 04:00:00,
2013-06-03 01:00:00,63.9,63.3,29.89,West,270,0.0,1.0,98,0.00,,OVC,0.00,VWS V14.01,2013-06-03 05:00:00,
2013-06-03 02:00:00,63.9,63.3,29.91,West,270,0.0,1.0,98,0.00,,OVC,0.00,VWS V14.01,2013-06-03 06:00:00,
2013-06-03 03:00:00,63.6,63.0,29.90,West,270,0.0,1.0,98,0.00,,OVC,0.00,VWS V14.01,2013-06-03 07:00:00,
2013-06-03 04:00:00,63.6,63.3,29.87,West,270,0.0,2.0,99,0.01,,OVC,0.01,VWS V14.01,2013-06-03 08:00:00,
2013-06-03 05:00:00,63.4,62.8,29.87,West,270,0.0,1.0,98,0.01,,OVC,0.01,VWS V14.01,2013-06-03 09:00:00,
2013-06-03 06:00:00,63.2,62.6,29.87,West,270,0.0,1.0,98,0.01,,OVC,0.02,VWS V14.01,2013-06-03 10:00:00,
2013-06-03 07:00:00,62.8,62.2,29.88,SW,225,0.0,3.0,98,0.01,,OVC,0.02,VWS V14.01,2013-06-03 11:00:00,
2013-06-03 08:00:00,62.7,62.1,29.89,WSW,248,0.0,4.0,98,0.00,,OVC,0.02,VWS V14.01,2013-06-03 12:00:00,
2013-06-03 09:00:00,62.9,62.6,29.90,North,0,1.0,3.0,99,0.00,,OVC,0.02,VWS V14.01,2013-06-03 13:00:00,
2013-06-03 10:00:00,64.1,63.5,29.91,SW,225,0.0,4.0,98,0.00,,OVC,0.02,VWS V14.01,2013-06-03 14:00:00,
2013-06-03 11:00:00,67.0,65.2,29.92,NE,45,0.0,4.0,94,0.00,,OVC,0.02,VWS V14.01,2013-06-03 15:00:00,
2013-06-03 12:00:00,70.2,67.1,29.91,West,270,0.0,4.0,90,0.00,,OVC,0.02,VWS V14.01,2013-06-03 16:00:00,
2013-06-03 13:00:00,69.9,68.4,29.91,West,270,0.0,1.0,95,0.01,,OVC,0.03,VWS V14.01,2013-06-03 17:00:00,
2013-06-03 14:00:00,71.5,70.0,29.90,West,270,0.0,2.0,95,0.01,,OVC,0.03,VWS V14.01,2013-06-03 18:00:00,
2013-06-03 15:00:00,72.5,69.1,29.87,West,270,0.0,4.0,89,0.00,,OVC,0.03,VWS V14.01,2013-06-03 19:00:00,
2013-06-03 16:00:00,68.8,65.1,29.86,SW,225,0.0,15.0,88,0.00,,OVC,0.03,VWS V14.01,2013-06-03 20:00:00,
2013-06-03 17:00:00,75.8,68.5,29.85,WSW,248,0.0,4.0,78,0.00,,OVC,0.03,VWS V14.01,2013-06-03 21:00:00,
2013-06-03 18:00:00,75.0,69.1,29.84,SW,225,0.0,3.0,82,0.00,,OVC,0.03,VWS V14.01,2013-06-03 22:00:00,
2013-06-03 19:00:00,72.1,67.7,29.85,SW,225,0.0,4.0,86,0.00,,OVC,0.03,VWS V14.01,2013-06-03 23:00:00,
2013-06-03 20:00:00,68.9,64.6,29.87,SW,225,0.0,0.0,86,0.00,,OVC,0.03,VWS V14.01,2013-06-04 00:00:00,
2013-06-03 21:00:00,68.8,66.4,29.89,SW,225,0.0,0.0,92,0.00,,OVC,0.03,VWS V14.01,2013-06-04 01:00:00,
2013-06-03 22:00:00,68.6,60.4,29.92,SW,225,0.0,2.0,75,0.00,,OVC,0.03,VWS V14.01,2013-06-04 02:00:00,
2013-06-03 23:00:00,68.1,62.4,29.94,NNW,338,1.0,4.0,82,0.12,,OVC,0.15,VWS V14.01,2013-06-04 03:00:00,